Date String (YYYY-MM-DD hh:mm:ss) UTC,Instrument flags,absolute air pressure of the measurement (hPa),sample flow rate (lpm),inlet stack bypass flow (lpm),air temperature of the measurement (°C),ambient temperature measured by the external sensor (°C),aerosol sample conditioner tube jacket temperature (°C),OPC LED temperature (°C),internal box temperature (°C),relative humidity of the measurement (%),span deviation,mass concentration of particles derived from Lorenz-Mie calculation of OPC scattering (μg/m³),mass concentration of particles derived from Lorenz-Mie calculation of OPC scattering (μg/m³),mass concentration of particles derived from Lorenz-Mie calculation of OPC scattering (μg/m³)
DateTimeUTC,F1_M11,P_M11,Q1_M11,Q2_M11,T1_M11,T2_M11,T3_M11,T4_M11,T5_M11,U1_M11,ZSPAN_M11,X0_M11,X2_M11,X1_M11
2023-12-28 07:00:00,SystemResetWarning,0832.2,5.00,000.00,019.9,018.6,000.0,028.3,021.1,8.3,0000.0,0001.11,0000.73,0000.62
2023-12-28 07:01:00,SystemResetWarning,0832.1,5.01,000.00,019.9,018.6,000.0,028.3,021.1,8.4,0000.0,0001.05,0000.69,0000.60
2023-12-28 07:02:00,SystemResetWarning,0832.0,5.00,000.00,019.8,018.5,000.0,028.3,021.1,8.4,0000.0,0001.03,0000.68,0000.60
2023-12-28 07:03:00,SystemResetWarning,0831.9,5.00,000.00,019.8,018.5,000.0,028.3,021.1,8.5,0000.0,0001.00,0000.66,0000.59
2023-12-28 07:04:00,SystemResetWarning,0831.7,5.00,000.00,019.8,018.5,000.0,028.2,021.1,8.4,0000.0,0001.00,0000.66,0000.58
2023-12-28 07:05:00,SystemResetWarning,0831.7,5.00,000.00,019.8,018.5,000.0,028.2,021.1,8.5,0000.0,0000.96,0000.63,0000.57
2023-12-28 07:06:00,SystemResetWarning,0831.7,5.00,000.00,019.8,018.5,000.0,028.2,021.1,8.6,0000.0,0001.62,0000.63,0000.56
2023-12-28 07:07:00,SystemResetWarning,0831.7,5.00,000.00,019.8,018.6,000.0,028.2,021.1,8.6,0000.0,0001.58,0000.63,0000.57
2023-12-28 07:08:00,SystemResetWarning,0831.7,5.00,000.00,019.8,018.6,000.0,028.2,021.1,8.8,0000.0,0001.56,0000.63,0000.58
2023-12-28 07:09:00,SystemResetWarning,0831.6,5.00,000.00,019.8,018.6,000.0,028.2,021.1,8.8,0000.0,0001.52,0000.62,0000.58
2023-12-28 07:10:00,SystemResetWarning,0831.6,5.00,000.00,019.8,018.5,000.0,028.2,021.0,8.8,0000.0,0001.53,0000.62,0000.58
2023-12-28 07:11:00,SystemResetWarning,0831.6,5.00,000.00,019.8,018.5,000.0,028.2,021.0,8.8,0000.0,0001.56,0000.63,0000.59
2023-12-28 07:12:00,SystemResetWarning,0831.6,5.00,000.00,019.8,018.5,000.0,028.2,021.0,8.6,0000.0,0001.60,0000.65,0000.59
2023-12-28 07:13:00,SystemResetWarning,0831.5,5.00,000.00,019.7,018.5,000.0,028.2,021.0,8.6,0000.0,0001.60,0000.65,0000.58
2023-12-28 07:14:00,SystemResetWarning,0831.5,5.00,000.00,019.7,018.5,000.0,028.1,021.0,8.6,0000.0,0001.62,0000.66,0000.59
2023-12-28 07:15:00,SystemResetWarning,0831.6,5.00,000.00,019.7,018.4,000.0,028.1,021.0,8.4,0000.0,0001.64,0000.67,0000.59
2023-12-28 07:16:00,SystemResetWarning,0831.5,5.00,000.00,019.7,018.4,000.0,028.1,021.0,8.4,0000.0,0001.65,0000.67,0000.59
2023-12-28 07:17:00,SystemResetWarning,0831.5,5.00,000.00,019.7,018.4,000.0,028.1,020.9,8.4,0000.0,0000.89,0000.65,0000.58
2023-12-28 07:18:00,SystemResetWarning,0831.5,5.00,000.00,019.7,018.4,000.0,028.1,020.9,8.5,0000.0,0000.83,0000.63,0000.57
2023-12-28 07:19:00,SystemResetWarning,0831.5,5.00,000.00,019.7,018.4,000.0,028.1,020.9,8.7,0000.0,0000.83,0000.63,0000.58
2023-12-28 07:20:00,SystemResetWarning,0831.5,5.00,000.00,019.6,018.3,000.0,028.1,020.9,8.6,0000.0,0000.84,0000.64,0000.58
2023-12-28 07:21:00,SystemResetWarning,0831.6,5.00,000.00,019.6,018.3,000.0,028.0,020.9,8.5,0000.0,0000.84,0000.63,0000.57
2023-12-28 07:22:00,SystemResetWarning,0831.5,5.00,000.00,019.6,018.3,000.0,028.0,020.9,8.4,0000.0,0000.82,0000.63,0000.56
2023-12-28 07:23:00,SystemResetWarning,0831.5,5.00,000.00,019.6,018.3,000.0,028.0,020.8,8.3,0000.0,0000.79,0000.62,0000.56
2023-12-28 07:24:00,SystemResetWarning,0831.5,5.00,000.00,019.6,018.3,000.0,028.0,020.9,8.5,0000.0,0000.79,0000.61,0000.56
2023-12-28 07:25:00,SystemResetWarning,0831.5,5.01,000.00,019.6,018.3,000.0,028.0,020.8,8.9,0000.0,0000.79,0000.61,0000.55
2023-12-28 07:26:00,SystemResetWarning,0831.5,5.01,000.00,019.6,018.3,000.0,028.0,020.8,8.7,0000.0,0000.79,0000.61,0000.54
2023-12-28 07:27:00,SystemResetWarning,0831.5,5.00,000.00,019.5,018.3,000.0,028.0,020.8,8.7,0000.0,0000.79,0000.61,0000.54
2023-12-28 07:28:00,SystemResetWarning,0831.5,5.00,000.00,019.5,018.3,000.0,028.0,020.8,8.6,0000.0,0000.83,0000.62,0000.54
2023-12-28 07:29:00,SystemResetWarning,0831.5,5.00,000.00,019.5,018.2,000.0,028.0,020.8,8.7,0000.0,0001.15,0000.63,0000.54
2023-12-28 07:30:00,SystemResetWarning,0831.6,4.99,000.00,019.5,018.2,000.0,027.9,020.8,8.6,0000.0,0001.41,0000.62,0000.53
2023-12-28 07:31:00,SystemResetWarning,0831.5,5.00,000.00,019.5,018.2,000.0,027.9,020.7,8.6,0000.0,0001.39,0000.61,0000.52
2023-12-28 07:32:00,SystemResetWarning,0831.5,5.00,000.00,019.5,018.3,000.0,027.9,020.8,8.5,0000.0,0001.40,0000.62,0000.52
2023-12-28 07:33:00,SystemResetWarning,0831.5,5.00,000.00,019.5,018.2,000.0,027.9,020.8,8.4,0000.0,0001.42,0000.61,0000.52
2023-12-28 07:34:00,SystemResetWarning,0831.5,5.00,000.00,019.5,018.2,000.0,027.9,020.8,8.5,0000.0,0001.41,0000.60,0000.51
2023-12-28 07:35:00,SystemResetWarning,0831.5,5.00,000.00,019.5,018.3,000.0,027.9,020.8,8.6,0000.0,0001.43,0000.60,0000.50
2023-12-28 07:36:00,SystemResetWarning,0831.5,5.00,000.00,019.5,018.3,000.0,027.9,020.8,8.4,0000.0,0001.41,0000.60,0000.50
2023-12-28 07:37:00,SystemResetWarning,0831.5,5.00,000.00,019.5,018.3,000.0,027.9,020.8,8.3,0000.0,0001.38,0000.59,0000.50
2023-12-28 07:38:00,SystemResetWarning,0831.5,5.00,000.00,019.5,018.3,000.0,027.9,020.8,8.4,0000.0,0001.38,0000.58,0000.49
2023-12-28 07:39:00,SystemResetWarning,0831.5,5.00,000.00,019.5,018.3,000.0,027.9,020.8,8.2,0000.0,0001.35,0000.58,0000.50
2023-12-28 07:40:00,SystemResetWarning,0831.5,5.00,000.00,019.5,018.3,000.0,027.9,020.8,8.0,0000.0,0001.02,0000.58,0000.50
2023-12-28 07:41:00,SystemResetWarning,0831.5,5.00,000.00,019.5,018.3,000.0,027.8,020.8,7.9,0000.0,0000.78,0000.58,0000.50
2023-12-28 07:42:00,SystemResetWarning,0831.5,5.00,000.00,019.5,018.3,000.0,027.8,020.8,7.9,0000.0,0000.81,0000.59,0000.50
2023-12-28 07:43:00,SystemResetWarning,0831.4,5.00,000.00,019.4,018.3,000.0,027.8,020.7,8.0,0000.0,0000.80,0000.58,0000.49
2023-12-28 07:44:00,SystemResetWarning,0831.5,5.00,000.00,019.4,018.3,000.0,027.8,020.7,7.9,0000.0,0000.78,0000.57,0000.49
2023-12-28 07:45:00,SystemResetWarning,0831.4,5.00,000.00,019.4,018.3,000.0,027.8,020.7,7.8,0000.0,0000.81,0000.59,0000.50
2023-12-28 07:46:00,SystemResetWarning,0831.5,5.00,000.00,019.4,018.3,000.0,027.8,020.7,7.8,0000.0,0000.79,0000.58,0000.51
2023-12-28 07:47:00,SystemResetWarning,0831.5,5.00,000.00,019.4,018.3,000.0,027.8,020.7,7.8,0000.0,0000.79,0000.58,0000.50
2023-12-28 07:48:00,SystemResetWarning,0831.5,5.00,000.00,019.4,018.3,000.0,027.8,020.7,7.8,0000.0,0000.77,0000.57,0000.49
2023-12-28 07:49:00,SystemResetWarning,0831.4,5.00,000.00,019.4,018.2,000.0,027.8,020.7,7.9,0000.0,0000.77,0000.57,0000.49
2023-12-28 07:50:00,SystemResetWarning,0831.5,5.00,000.00,019.4,018.2,000.0,027.8,020.7,8.0,0000.0,0000.80,0000.58,0000.49
2023-12-28 07:51:00,SystemResetWarning,0831.5,5.00,000.00,019.4,018.2,000.0,027.8,020.7,8.0,0000.0,0000.89,0000.57,0000.47
2023-12-28 07:52:00,SystemResetWarning,0831.5,5.00,000.00,019.4,018.2,000.0,027.8,020.6,8.0,0000.0,0000.90,0000.57,0000.47
2023-12-28 07:53:00,SystemResetWarning,0831.5,5.00,000.00,019.4,018.2,000.0,027.8,020.6,8.0,0000.0,0000.86,0000.55,0000.46
2023-12-28 07:54:00,SystemResetWarning,0831.5,5.00,000.00,019.3,018.2,000.0,027.7,020.7,8.0,0000.0,0000.87,0000.56,0000.46
2023-12-28 07:55:00,SystemResetWarning,0831.5,5.00,000.00,019.3,018.2,000.0,027.7,020.7,8.0,0000.0,0000.86,0000.55,0000.45
2023-12-28 07:56:00,SystemResetWarning,0831.5,5.00,000.00,019.3,018.2,000.0,027.7,020.7,8.0,0000.0,0000.85,0000.54,0000.45
2023-12-28 07:57:00,SystemResetWarning,0831.5,5.00,000.00,019.3,018.2,000.0,027.7,020.6,7.9,0000.0,0000.85,0000.54,0000.45
2023-12-28 07:58:00,SystemResetWarning,0831.6,5.01,000.00,019.3,018.2,000.0,027.7,020.7,8.0,0000.0,0000.84,0000.53,0000.45
2023-12-28 07:59:00,SystemResetWarning,0831.6,5.01,000.00,019.3,018.2,000.0,027.7,020.7,8.4,0000.0,0000.86,0000.54,0000.45
